Theta_e
336 333 334 337 337 336 339 343 344 345 346 345 344 346 347 346 346 346 347 347 344 342 344 344 345 344 342 342 342 342 344 345 343 343 342 335 331 332 332 330 330 329 328 330 331 333 334 335 336 338 340 342 344 345 345 346 346 346 346 345 344 343 343 343 344 345 345 345 346 347 348 348 348 347 343 341 339 338 338 339 339 339 340 339 340
336 337 342 344 342 341 343 346 346 346 347 347 346 347 347 347 347 346 347 346 344 343 344 343 345 344 343 342 341 342 344 344 341 341 341 336 331 331 331 330 329 328 329 331 333 334 335 336 337 339 341 342 344 345 345 345 345 345 345 343 343 342 343 343 344 345 346 346 346 346 347 347 348 345 342 341 339 336 336 337 337 338 338 338 341
339 342 345 345 343 344 345 346 347 347 348 348 348 348 348 347 348 347 346 345 343 345 344 343 344 342 342 343 341 342 342 341 340 339 340 337 331 330 330 329 328 328 330 332 334 335 335 336 336 338 341 342 343 344 344 345 344 344 343 342 342 342 342 342 344 345 346 347 346 346 347 348 346 341 336 336 335 334 335 336 337 338 338 338 340
342 345 345 345 345 346 345 346 347 348 349 348 348 349 349 349 349 348 346 344 344 345 344 343 342 341 342 342 341 342 342 340 340 339 339 337 331 330 329 328 328 329 331 333 335 336 336 336 336 338 340 341 342 343 343 343 343 344 342 341 341 341 341 342 342 344 346 347 347 348 348 348 345 336 333 333 332 333 334 335 336 336 337 339 340
344 345 344 345 346 346 346 347 348 349 349 349 349 350 349 348 348 349 347 344 345 345 343 342 341 341 342 342 341 342 342 341 340 339 339 336 330 329 329 328 329 330 332 334 335 336 336 337 338 338 339 341 341 342 343 343 343 343 341 340 341 340 341 341 342 343 345 347 348 349 349 349 345 336 333 334 333 333 334 335 336 335 336 336 338
344 344 344 346 347 347 347 348 348 348 349 350 349 348 347 347 348 348 347 345 344 343 341 341 341 342 342 341 341 340 341 341 339 339 340 337 331 328 328 328 329 330 333 334 335 336 337 338 339 339 340 341 342 342 342 342 342 341 341 340 340 340 340 341 342 343 345 347 348 349 349 348 346 339 335 334 333 335 337 339 341 340 340 337 336
343 344 345 347 347 347 348 348 349 349 351 349 347 347 347 347 347 347 346 345 344 343 342 342 342 342 342 341 342 340 341 341 339 339 340 339 336 331 328 328 329 330 332 334 334 335 336 338 339 340 341 340 341 341 341 341 342 341 340 340 341 341 342 342 343 342 344 347 348 349 349 347 345 341 336 334 335 338 341 342 342 343 343 343 342
344 345 345 346 347 348 349 349 349 349 348 347 347 347 347 348 349 346 345 344 344 343 342 343 342 342 342 342 342 341 340 339 339 340 340 340 340 335 331 330 330 331 333 333 334 335 336 337 337 338 339 339 339 339 340 341 342 341 340 341 342 343 343 343 343 342 345 348 349 349 348 345 343 340 337 337 339 341 341 341 340 340 340 342 345
345 345 345 346 347 349 350 349 349 349 347 347 348 348 348 349 349 347 345 343 342 342 342 342 341 341 342 342 342 341 340 341 341 342 341 340 340 336 334 333 330 330 332 332 333 334 335 336 336 337 338 338 339 339 340 341 341 341 341 342 343 344 344 344 345 345 347 348 349 349 347 344 343 342 341 341 342 341 340 340 340 340 339 339 341
345 344 344 346 348 349 349 348 349 350 347 349 349 347 348 349 350 350 349 345 342 342 342 342 341 340 341 342 343 342 341 342 342 342 341 341 340 337 338 338 334 332 333 335 336 334 334 336 337 337 338 340 341 341 342 342 342 340 341 342 342 343 345 346 346 347 348 349 349 349 347 345 344 343 343 342 341 341 341 341 340 340 341 340 339
344 344 346 347 348 349 348 346 349 349 347 349 348 347 350 350 350 351 349 346 343 342 342 342 340 340 341 342 341 341 341 342 341 341 340 340 339 338 340 341 339 338 338 339 339 338 337 338 339 338 339 341 343 343 343 344 343 341 341 342 341 343 345 347 347 346 347 348 349 349 347 345 345 343 342 341 341 341 341 341 340 340 341 342 342
343 345 348 348 347 349 348 347 349 348 346 349 348 348 351 349 348 348 348 347 344 342 342 342 341 340 341 341 340 340 341 341 340 340 341 340 340 339 340 340 340 339 339 339 340 339 339 340 340 339 340 341 342 343 343 344 344 343 342 342 342 343 346 347 346 345 346 348 349 349 347 346 345 343 342 341 342 341 341 340 339 341 342 343 344
343 347 348 348 348 349 348 347 349 347 347 349 348 348 348 348 347 347 349 348 345 343 342 342 341 340 340 338 339 340 341 341 340 341 341 340 340 339 339 339 339 339 339 340 340 340 340 340 340 340 341 341 342 342 343 344 345 345 344 344 343 344 346 347 345 343 344 346 347 347 346 345 345 343 342 342 342 342 341 340 339 341 343 344 345
345 348 348 348 348 348 346 345 346 345 347 350 348 346 346 348 349 349 350 349 346 344 343 343 342 342 340 337 339 341 340 341 341 342 342 340 339 339 339 339 339 339 340 341 340 339 339 340 341 342 342 342 343 343 343 345 345 346 347 346 345 345 346 346 344 342 343 343 344 344 345 345 344 343 342 342 342 341 339 339 340 341 344 346 345
344 346 347 347 347 346 345 347 348 345 347 350 349 346 345 348 350 350 350 348 346 345 343 344 343 343 341 338 339 341 340 341 341 340 341 341 340 340 340 339 339 339 340 341 340 339 340 341 341 342 342 342 343 343 344 346 346 347 347 345 345 346 347 346 344 342 341 341 342 342 343 343 343 343 343 343 342 340 337 338 341 341 344 347 345
341 342 344 347 346 345 344 346 348 346 345 348 348 345 343 347 350 351 350 347 346 345 343 344 343 343 344 341 342 341 340 341 341 340 340 340 339 339 340 339 339 339 339 340 340 340 341 341 341 342 343 342 343 345 346 346 347 348 346 344 346 347 346 346 343 341 340 340 341 342 343 343 344 343 343 343 341 338 336 338 341 341 344 346 346
339 341 342 344 345 344 344 344 346 345 343 344 345 343 344 349 352 352 350 347 346 344 342 344 344 343 345 345 343 342 342 342 341 340 339 338 338 339 340 340 339 339 339 340 340 340 340 340 340 341 342 342 344 348 348 348 349 352 349 348 350 349 347 345 344 343 341 341 342 343 343 343 343 343 342 342 340 338 338 340 341 341 343 346 346
340 342 343 344 344 345 347 345 344 343 342 344 345 347 350 351 352 350 350 348 347 346 343 344 344 342 343 345 344 344 344 342 341 341 341 340 340 341 341 340 340 340 340 340 339 340 340 340 340 341 342 342 345 348 348 349 351 353 353 352 353 353 350 346 344 343 342 342 343 343 343 342 342 342 341 341 340 339 341 342 342 342 344 346 345
342 344 345 345 343 344 346 345 344 343 344 347 348 351 352 352 352 349 349 349 349 349 346 344 343 342 343 344 345 345 345 343 343 342 341 342 342 342 343 342 341 341 341 340 340 341 341 341 341 342 343 343 345 347 346 348 350 353 355 352 352 354 351 345 341 341 341 343 344 342 342 341 341 341 341 341 341 342 343 342 342 342 345 347 346
345 346 348 346 342 341 343 345 346 344 346 349 350 352 350 350 352 348 348 350 349 348 349 346 344 343 344 344 345 346 346 346 345 343 342 343 342 343 345 346 345 344 343 341 341 342 343 343 344 344 344 343 344 345 346 348 351 353 355 351 350 352 349 343 339 340 341 343 343 342 340 340 340 340 341 342 342 343 343 343 343 343 345 347 346
348 348 350 346 341 342 341 344 347 344 345 348 350 352 350 349 351 350 349 350 345 343 346 347 344 345 348 347 345 346 347 346 344 344 345 344 344 344 345 347 347 346 345 343 343 344 344 345 345 346 345 345 345 347 348 349 351 352 352 350 350 351 347 340 338 340 342 343 341 339 338 339 340 340 341 342 342 343 343 343 343 343 345 348 348
350 349 348 345 342 343 341 342 345 345 346 350 352 353 351 349 351 351 348 345 341 340 344 344 343 347 349 347 347 347 347 345 345 346 346 346 346 345 346 347 347 347 346 346 346 345 346 346 346 345 346 346 346 348 348 348 349 350 351 349 348 348 344 339 337 339 341 341 339 338 338 340 341 341 341 342 342 343 343 343 344 344 345 348 349
350 348 346 344 342 342 342 342 343 345 349 351 352 354 353 350 350 347 344 343 341 340 342 342 342 347 348 347 348 349 347 346 346 346 345 345 346 346 347 347 346 346 346 347 347 346 346 346 345 346 346 346 346 347 347 347 349 349 349 348 346 346 342 337 335 336 338 340 338 338 340 341 341 341 341 341 342 343 343 343 344 345 345 347 349
347 346 344 344 342 341 342 343 342 345 347 349 351 353 353 351 348 345 345 345 343 341 341 341 343 347 348 348 349 349 348 348 347 347 346 346 346 346 346 346 346 346 347 348 347 347 346 345 346 346 347 347 348 349 349 349 350 349 349 347 346 346 342 338 338 337 337 341 341 340 341 342 342 343 342 342 342 343 343 344 345 346 346 345 348
347 345 342 342 342 341 341 341 343 345 345 347 350 350 351 352 350 348 349 348 345 343 340 340 342 344 347 348 349 349 350 349 348 348 348 346 345 346 347 347 348 348 347 348 348 348 346 346 346 346 347 348 349 350 350 350 351 350 349 346 345 346 343 342 343 340 339 342 343 342 342 342 344 345 344 342 342 343 343 345 346 347 346 345 346
347 345 343 342 340 340 340 340 342 345 344 344 345 345 348 351 351 350 351 350 347 344 342 342 343 344 348 350 350 350 350 350 349 349 348 346 345 347 348 349 349 349 347 347 348 348 348 347 347 347 348 349 349 350 350 350 351 351 349 345 343 344 343 344 345 341 340 342 343 343 343 344 344 345 345 343 343 343 344 345 346 347 347 345 344
346 345 346 345 342 340 341 341 340 342 343 342 342 343 345 348 349 349 350 348 346 343 343 343 342 344 349 352 352 352 351 350 349 350 349 348 346 347 348 348 349 349 348 348 347 349 350 349 349 349 349 349 350 350 350 351 351 350 348 344 341 342 342 344 344 341 341 343 343 344 344 344 345 346 345 344 344 344 345 345 345 346 346 345 345
342 342 346 347 346 344 343 342 341 340 341 341 342 342 343 344 347 347 346 346 344 341 341 342 342 343 347 350 352 352 351 351 350 350 349 348 348 348 348 348 349 350 351 350 348 349 351 351 350 350 351 351 351 350 350 351 350 349 348 345 342 342 342 342 342 341 342 343 343 344 344 344 345 346 346 345 345 346 346 345 345 345 345 345 345
343 343 345 346 346 347 346 344 343 341 340 339 339 340 340 341 343 343 342 341 341 340 340 341 343 344 345 349 352 353 352 352 352 351 350 350 350 350 349 349 350 352 352 352 351 350 350 350 350 351 353 352 352 351 350 351 350 349 347 346 344 343 342 342 342 342 343 344 344 344 344 345 346 346 346 346 346 346 346 344 344 344 345 345 345
347 346 346 345 345 346 346 347 346 343 340 338 338 338 338 338 339 341 341 341 341 341 340 340 342 344 344 346 349 351 352 353 353 353 351 350 351 350 349 349 349 350 351 351 351 351 350 350 350 351 352 352 352 352 351 351 351 349 347 347 346 344 344 344 344 343 344 345 345 345 346 346 346 346 347 346 347 347 346 344 344 344 344 345 345
348 348 347 346 346 346 346 346 348 347 344 342 340 338 338 338 338 340 341 341 341 341 342 342 342 343 344 346 348 350 351 352 352 352 350 350 351 351 350 349 349 349 349 351 352 351 351 352 351 351 351 351 352 352 351 352 352 350 347 347 346 345 345 345 345 345 345 346 346 346 346 347 347 348 348 347 347 347 345 343 343 343 344 344 345
347 347 348 348 348 347 346 346 347 347 347 347 345 341 339 338 338 340 341 341 342 344 346 347 346 344 345 349 352 353 353 353 352 351 349 349 350 350 350 350 350 349 349 351 352 351 352 353 352 352 351 351 351 351 351 351 351 351 349 347 346 346 346 347 346 346 346 347 347 347 347 347 348 349 349 348 348 348 345 343 343 343 343 344 344
347 347 347 348 348 348 349 348 347 346 345 346 346 344 342 340 339 340 341 342 346 350 352 351 349 347 346 348 351 353 354 354 352 350 349 349 350 350 351 350 350 350 350 351 351 351 353 353 352 352 350 350 351 352 351 351 350 351 351 350 348 346 347 349 347 346 346 348 348 348 348 348 349 349 349 349 349 348 346 343 342 343 343 343 343
348 347 346 347 348 349 350 350 350 349 346 345 346 347 347 345 343 343 343 344 348 352 352 349 347 346 346 346 347 348 349 350 350 350 351 353 352 352 352 351 351 351 351 351 352 352 353 353 352 352 350 350 351 351 350 351 351 351 351 351 350 348 348 348 348 347 347 348 348 348 348 349 350 350 351 350 349 348 346 343 342 343 343 343 342
348 348 347 346 347 348 349 350 351 351 350 349 349 349 349 348 348 348 348 347 348 351 352 351 350 349 347 346 344 345 347 350 351 353 354 354 354 353 352 352 352 352 352 352 353 353 353 353 352 352 351 350 350 349 348 348 349 350 350 350 350 349 348 348 348 349 349 349 349 348 348 349 350 351 351 351 350 349 347 344 342 342 342 342 341
348 348 347 347 347 347 347 349 350 351 351 350 350 350 350 350 350 350 350 350 350 352 354 354 354 353 351 349 348 349 351 354 355 355 354 354 354 353 352 351 352 353 353 353 352 353 353 353 353 352 351 350 349 349 349 348 349 349 349 349 350 349 349 348 348 348 350 351 350 348 346 348 350 351 352 352 350 349 347 345 344 342 342 341 340
348 348 348 347 348 348 348 348 349 350 350 350 350 350 350 350 350 350 351 351 350 352 354 355 355 355 355 353 352 352 353 354 355 355 355 354 354 353 352 352 352 352 353 353 353 353 353 352 352 351 350 348 347 347 347 348 348 348 348 349 349 349 348 347 347 348 350 351 350 347 345 348 351 351 351 352 350 348 348 347 346 343 341 340 339
349 349 349 349 348 348 349 349 350 350 351 350 350 350 350 350 351 351 352 352 352 352 353 353 354 355 355 355 354 353 353 353 355 355 354 353 353 354 354 354 353 352 352 352 353 353 353 352 351 350 348 346 345 344 343 344 345 346 346 347 347 346 346 345 345 347 349 349 348 346 346 349 351 349 349 351 350 348 348 348 347 344 341 338 336
348 348 349 350 349 349 349 350 351 351 352 352 351 350 350 350 350 351 352 352 353 353 354 354 354 354 354 354 354 355 354 354 355 354 353 353 353 353 353 354 353 353 352 352 352 352 352 351 350 348 346 344 343 344 343 343 345 347 347 347 346 345 344 344 345 346 347 346 345 346 348 349 350 349 348 350 349 348 348 348 347 344 341 337 333
346 346 347 348 349 349 349 350 351 352 352 353 353 353 352 352 352 352 352 353 353 353 353 354 353 353 352 352 353 355 355 354 354 353 353 352 352 352 352 352 352 352 352 352 352 351 350 348 346 344 343 343 343 344 344 344 345 348 349 347 347 346 344 343 343 344 344 343 342 346 349 349 348 349 349 350 350 348 347 347 346 343 340 337 332
346 345 347 347 348 348 349 349 350 351 352 352 353 354 353 353 353 353 353 353 353 353 353 353 352 352 352 351 352 354 354 354 353 353 352 351 351 352 352 352 352 352 352 352 352 352 350 347 343 343 343 343 343 343 344 346 347 347 348 348 347 347 346 343 341 341 342 342 342 346 350 348 347 348 349 349 350 348 347 346 344 341 338 334 330
348 347 348 348 347 347 347 346 348 350 352 352 353 353 354 353 353 353 353 353 353 353 353 353 352 352 352 353 353 353 354 353 353 353 353 352 351 351 351 352 352 352 351 351 351 351 350 347 345 344 345 345 343 343 344 346 347 347 348 348 348 347 347 345 342 340 342 345 345 347 349 348 347 348 348 348 348 348 347 345 343 340 336 331 329
347 346 346 347 348 348 347 345 346 349 351 352 352 352 353 353 352 353 353 353 353 354 353 353 352 352 353 353 353 353 354 354 354 354 354 352 351 350 350 351 351 351 350 350 350 351 350 350 348 348 348 346 344 344 344 344 345 346 347 348 348 347 347 347 345 342 342 346 346 347 347 347 347 348 348 348 347 347 346 344 341 338 334 330 330
348 347 346 348 351 350 349 348 348 349 351 352 351 351 351 351 351 351 352 353 353 353 353 353 352 353 353 353 353 354 354 352 352 352 352 352 351 350 350 351 351 351 351 350 350 350 350 351 350 348 348 346 345 344 344 344 345 346 346 347 348 348 348 348 347 344 344 345 346 346 346 346 347 349 349 347 346 345 344 342 340 338 334 332 333
349 350 350 351 352 351 350 350 350 350 350 349 350 351 350 350 350 350 350 352 353 353 353 353 353 353 354 353 352 353 351 349 347 347 348 350 350 349 349 349 350 350 350 349 348 348 348 349 348 346 344 345 345 345 346 347 347 347 347 347 347 348 349 349 348 346 345 346 346 346 346 347 348 349 349 348 346 344 343 341 340 338 335 335 335
349 349 350 350 350 349 350 351 352 351 350 348 349 349 349 349 349 350 350 350 352 352 353 353 353 353 353 353 352 351 350 349 349 348 347 347 347 347 347 347 347 348 348 347 347 347 347 347 346 344 343 344 345 346 348 349 349 349 350 349 347 347 348 348 348 347 345 344 345 346 346 347 348 349 349 348 346 343 341 340 339 338 336 335 335
350 350 350 350 350 349 350 351 350 350 350 350 349 348 348 348 349 349 349 350 350 351 352 352 352 352 352 352 351 350 349 349 349 349 347 346 345 346 347 347 347 346 346 345 345 347 348 348 346 344 343 344 345 345 346 347 348 350 351 351 349 348 347 346 346 347 345 343 344 346 347 347 348 348 347 346 346 343 340 338 337 337 336 336 335
350 349 349 350 350 349 350 350 348 348 350 351 350 349 348 349 350 349 349 349 349 350 350 351 351 350 350 350 350 350 350 350 349 349 348 347 345 345 346 347 347 347 347 345 345 346 348 349 348 346 345 345 344 344 344 345 347 349 351 352 350 349 348 347 346 346 346 345 344 345 346 347 346 346 345 345 345 342 338 336 337 337 336 336 334
350 350 350 350 350 350 350 350 350 350 350 349 348 348 347 348 349 349 349 349 350 351 350 350 349 349 349 349 349 350 350 350 349 348 348 348 347 345 345 346 346 347 346 346 346 346 347 349 348 347 346 345 345 345 344 345 346 348 350 351 351 350 350 348 347 347 347 347 345 344 345 346 344 344 344 343 342 340 337 336 337 336 336 336 334
346 346 346 347 347 347 347 348 350 351 350 350 349 348 347 347 348 348 348 349 350 350 350 349 349 349 349 349 349 349 349 348 348 348 348 347 346 345 345 345 346 346 346 346 347 347 347 346 345 345 344 344 345 346 346 346 347 348 350 350 350 351 351 350 349 348 348 348 347 346 346 346 344 344 343 341 340 338 337 336 337 336 337 335 333
339 340 343 344 343 342 344 347 349 350 350 350 350 349 348 348 349 349 349 350 350 350 349 349 350 350 350 350 349 348 348 347 347 347 346 346 345 345 346 346 347 347 346 346 347 347 347 346 345 344 344 344 345 345 345 347 348 349 349 350 350 350 351 351 350 350 350 349 348 348 347 346 344 343 341 340 339 337 336 336 337 336 334 332 332
Wind_Speed
15 15 14 12 12 12 11 10 9 9 8 6 6 6 6 5 6 6 6 4 1 0 1 3 4 5 1 3 3 4 7 7 6 4 3 4 2 3 4 5 5 5 6 6 7 7 6 6 6 6 5 6 6 5 5 6 7 9 10 10 10 11 11 11 12 11 11 11 10 10 10 10 10 10 10 10 10 10 10 10 11 11 12 11 11
15 14 12 11 11 11 10 8 7 6 5 3 4 5 5 4 4 4 3 0 2 3 3 4 8 9 4 1 3 3 7 7 5 2 3 5 2 3 4 4 4 5 5 6 6 6 6 5 5 4 4 5 5 4 5 6 8 9 10 11 12 12 12 12 12 13 13 12 11 11 11 11 11 10 10 10 10 11 11 11 11 12 12 12 12
15 14 12 12 12 10 8 6 4 3 2 1 1 1 2 3 1 2 4 6 4 5 7 7 9 10 9 3 3 2 2 3 2 3 4 5 2 2 4 4 4 5 5 6 6 5 4 4 3 3 2 3 3 3 5 6 8 10 11 13 14 14 14 13 13 14 15 13 12 11 11 11 10 10 10 10 10 10 11 11 12 13 13 13 12
14 13 14 14 11 8 6 5 5 5 4 4 3 2 2 1 1 3 6 8 5 5 6 6 5 8 10 6 1 2 1 1 1 4 6 7 1 3 3 4 3 4 5 5 5 4 3 2 2 2 1 2 4 5 6 8 9 11 11 13 15 16 16 14 14 15 16 14 11 11 12 12 11 9 9 10 10 10 11 12 13 15 15 14 14
13 13 15 14 11 7 6 7 7 7 6 6 5 4 5 2 3 4 6 8 7 5 5 6 6 7 8 6 4 4 2 2 1 3 6 6 1 3 3 4 3 4 5 5 4 3 2 2 2 2 3 4 5 7 8 10 11 12 13 14 15 16 16 16 15 15 16 15 11 11 12 13 12 9 9 10 11 11 12 14 15 17 17 17 16
13 14 15 13 9 6 7 7 7 7 7 6 6 7 6 6 6 5 7 8 6 7 6 6 5 4 6 5 4 6 6 6 3 2 4 5 1 3 3 3 2 3 4 4 3 2 1 1 2 3 4 5 7 8 9 11 13 14 14 15 16 17 17 17 16 15 15 14 11 11 13 15 13 9 9 11 12 13 14 15 16 17 18 18 18
14 14 13 11 9 8 8 8 6 7 6 6 8 8 7 8 7 5 7 6 5 7 5 2 2 3 5 4 3 5 6 8 7 4 4 4 3 2 2 3 2 2 2 2 2 0 0 1 2 3 4 6 8 9 10 12 15 17 17 17 17 17 17 17 16 14 14 13 11 12 14 15 13 9 9 11 12 14 15 16 16 16 17 17 19
16 14 12 11 9 9 9 9 8 8 7 8 8 7 7 6 5 5 6 6 5 5 4 3 4 3 3 5 3 3 5 6 7 6 6 4 7 4 1 1 0 1 0 2 2 2 2 3 4 6 7 8 10 12 12 13 16 18 18 18 18 17 16 14 13 12 12 12 12 12 14 15 13 9 9 11 13 14 15 15 15 15 16 17 18
16 14 13 11 9 10 10 9 9 9 9 9 8 6 6 5 4 5 5 6 6 5 5 5 7 4 3 6 4 4 6 5 4 6 6 4 8 4 2 1 1 1 2 4 6 6 4 5 6 8 9 9 11 13 12 13 15 17 17 16 16 16 15 12 12 12 12 12 12 13 14 13 12 11 11 13 14 14 15 15 15 15 15 15 17
16 14 14 11 10 11 9 9 10 10 10 9 8 8 6 4 4 5 4 5 5 4 3 2 5 5 3 7 5 4 6 2 2 4 3 5 8 3 1 2 1 1 2 6 8 6 4 5 7 9 10 10 11 12 12 14 16 17 17 16 16 16 14 13 14 15 14 13 13 13 13 12 12 12 13 15 15 15 15 16 16 16 15 15 15
15 14 14 12 11 10 9 10 10 10 11 10 9 9 7 6 5 5 5 6 5 4 4 4 3 3 4 9 5 5 8 5 2 3 3 5 6 4 3 4 4 4 5 6 7 6 5 6 8 10 11 11 12 13 14 16 18 19 18 17 15 15 15 15 16 17 15 13 12 13 12 11 12 13 15 16 16 15 16 18 19 19 17 15 13
15 14 13 12 13 12 10 10 10 11 12 10 10 9 8 8 7 6 6 5 5 6 5 4 2 2 4 8 3 2 8 5 4 7 8 5 4 6 6 7 8 10 9 7 7 7 7 8 9 12 12 12 13 14 15 16 18 19 19 17 15 14 14 15 17 17 15 13 12 13 12 11 12 14 16 16 16 16 19 20 21 20 19 16 13
15 14 13 13 13 12 10 11 11 12 12 9 10 10 9 8 7 7 6 3 4 5 2 1 3 2 5 6 2 1 4 1 5 8 9 8 6 8 8 9 10 11 11 8 7 7 7 8 10 13 13 13 15 15 15 16 17 18 18 16 14 14 14 15 17 16 14 13 13 13 12 11 13 14 16 16 16 18 21 22 22 22 20 17 13
16 14 14 14 13 10 10 11 10 12 12 10 10 10 9 8 6 6 5 3 4 3 1 1 2 2 3 6 5 4 3 2 5 6 6 7 8 9 6 5 6 8 9 10 7 7 7 8 9 11 13 14 16 16 16 17 17 18 19 16 13 13 14 15 17 15 13 13 13 12 11 12 13 14 15 16 17 20 22 22 22 22 20 17 13
16 14 13 12 11 10 11 11 10 10 12 10 9 9 9 8 7 5 4 4 5 3 2 0 0 2 3 5 6 7 8 6 4 3 7 7 8 10 6 5 7 9 7 9 7 8 9 9 11 12 12 12 14 16 16 16 17 19 18 14 12 12 13 15 16 13 12 11 11 12 12 12 13 13 15 16 18 20 21 21 22 22 19 17 14
16 14 12 10 9 10 11 11 9 9 10 10 9 8 9 8 5 4 5 6 6 4 2 0 0 2 3 2 2 4 7 5 1 3 7 8 6 6 5 7 8 7 6 10 8 9 11 12 13 11 9 10 12 13 14 15 17 19 17 13 11 12 14 15 15 12 10 10 11 12 12 12 13 14 14 16 18 20 20 20 21 21 19 17 15
16 14 13 10 9 9 10 10 9 9 10 8 9 9 7 6 3 3 5 6 6 5 4 3 1 1 2 2 3 3 3 1 2 4 5 5 2 1 3 5 5 6 6 11 10 9 10 12 13 11 9 10 10 10 12 13 15 16 15 13 12 14 16 15 14 11 9 10 11 12 13 13 13 14 15 17 19 19 18 19 20 20 18 16 15
15 13 12 10 10 9 9 9 9 10 10 9 10 10 7 5 3 4 6 6 6 6 7 4 1 1 2 3 5 5 4 3 1 1 1 2 3 2 2 3 5 9 9 9 9 10 10 10 11 12 13 13 10 9 11 13 13 13 13 12 12 13 16 15 12 9 8 9 11 12 13 14 14 15 17 18 19 18 18 19 20 19 18 16 15
14 13 11 10 10 10 9 9 8 10 11 11 11 9 8 7 6 7 7 6 5 5 6 5 3 0 1 2 5 6 6 5 4 4 3 2 2 2 1 3 7 10 11 10 9 9 10 9 9 12 14 14 12 12 14 13 13 12 12 12 12 13 15 14 10 7 8 10 12 13 14 15 16 17 18 18 18 17 18 19 19 18 17 16 15
13 12 11 9 10 10 9 9 9 10 11 10 10 9 9 10 9 8 6 5 5 5 4 4 4 3 2 2 3 4 4 4 5 5 5 5 4 2 2 5 8 10 11 11 9 8 9 9 10 11 12 13 13 13 14 12 12 12 12 12 11 12 14 12 8 7 9 11 12 14 15 17 18 18 18 18 18 19 19 20 19 18 15 14 14
13 12 11 10 10 10 10 10 10 11 11 10 9 7 8 11 11 8 6 7 7 6 4 4 4 4 3 2 3 2 3 3 4 5 6 8 7 5 5 6 7 8 10 10 9 8 10 11 12 12 11 11 11 11 11 9 9 11 12 10 9 11 12 10 7 8 10 11 13 15 16 17 18 19 19 20 20 20 20 20 19 17 14 12 12
15 13 11 11 11 11 10 10 10 10 11 11 8 6 9 11 9 6 7 9 8 7 6 6 5 4 2 1 2 2 4 4 4 6 7 7 7 7 6 6 7 8 9 9 9 9 11 12 13 12 11 10 10 9 9 10 10 9 9 8 9 10 9 8 8 9 10 12 14 14 15 16 18 20 21 21 21 22 22 21 19 17 13 10 10
15 14 13 12 12 12 11 11 10 10 12 12 10 10 9 8 7 7 7 9 9 8 7 7 6 5 3 2 1 3 4 5 6 7 7 7 7 8 7 7 9 10 9 8 9 10 11 12 13 13 10 9 9 9 9 10 10 9 8 8 9 8 7 7 9 11 11 12 13 13 14 17 19 21 22 23 23 23 22 21 19 16 13 10 8
14 14 13 12 13 13 12 12 11 12 13 12 11 12 9 7 8 8 7 8 8 8 7 7 7 6 4 4 4 3 4 6 7 8 9 8 8 10 9 9 9 9 8 7 8 10 10 10 11 10 7 8 9 8 8 10 11 9 7 7 8 6 6 7 11 14 13 13 14 14 15 18 21 23 24 24 23 23 22 20 18 16 13 11 9
14 14 13 12 13 13 13 13 13 12 12 12 12 12 10 9 10 9 8 7 6 7 7 7 7 7 5 5 4 4 5 6 5 7 8 8 10 11 9 8 8 8 8 7 9 10 9 9 9 7 6 8 8 8 9 11 12 10 7 8 8 6 6 9 13 15 14 14 15 15 17 19 22 25 26 24 23 22 21 20 17 15 13 12 10
14 14 13 12 13 13 13 12 12 12 12 12 13 12 10 10 11 10 8 7 7 7 7 6 7 6 4 3 4 6 8 7 6 6 8 9 10 9 7 7 8 9 9 9 10 10 9 9 9 8 9 10 9 9 11 12 12 9 7 8 9 7 9 11 13 14 13 14 16 17 18 20 22 25 26 25 22 21 21 19 17 15 13 12 11
16 14 13 12 12 12 13 13 12 13 12 11 11 11 11 11 12 11 9 9 8 7 6 6 8 7 6 6 7 7 8 8 7 6 8 9 8 8 7 8 10 11 11 10 10 10 9 8 9 10 10 10 9 11 12 12 10 8 7 8 9 9 11 13 14 14 12 12 15 17 18 20 22 25 26 24 22 21 20 18 17 16 14 12 11
15 14 14 14 12 11 12 12 12 12 12 11 11 11 11 12 13 14 12 11 11 9 8 8 8 8 8 9 8 6 7 7 7 7 8 8 8 9 8 9 11 12 12 12 12 11 8 7 8 10 10 10 11 12 12 12 10 9 7 6 7 10 12 14 14 12 11 12 13 15 17 19 21 24 24 22 22 21 19 18 17 15 15 14 12
11 11 13 15 15 13 12 12 12 12 12 12 12 12 12 13 14 14 13 12 12 11 10 9 8 8 8 8 7 5 7 7 7 8 7 5 8 9 9 10 11 10 12 13 13 11 8 7 7 8 10 11 11 12 13 12 10 8 5 5 6 9 12 14 13 13 13 13 13 13 15 17 20 23 23 22 21 19 18 18 17 15 15 14 13
12 11 11 13 15 16 16 14 12 11 11 12 12 13 13 13 12 13 12 12 12 12 11 10 8 8 8 8 8 8 9 9 10 10 8 6 6 8 9 10 10 10 12 13 14 12 9 9 8 8 10 11 10 11 12 12 9 6 4 6 7 9 12 14 15 16 16 15 14 13 13 16 19 21 21 21 20 18 17 18 17 16 15 15 14
16 15 14 12 13 15 16 16 15 14 12 11 11 11 13 13 12 12 12 11 11 11 11 10 10 9 9 8 7 8 9 11 12 13 11 9 8 9 9 10 10 12 13 13 14 12 10 11 10 8 9 9 8 9 10 9 8 6 5 6 7 8 11 14 15 16 17 16 13 11 12 16 18 19 19 20 18 16 16 17 17 17 16 15 14
17 18 17 16 14 13 14 16 17 17 16 14 13 11 12 13 13 13 12 12 11 10 10 10 10 10 10 8 8 8 8 10 12 11 10 9 9 8 7 10 12 14 13 13 14 12 10 11 10 9 8 8 8 8 9 9 7 6 6 7 7 9 11 12 11 11 10 10 9 9 12 15 17 18 18 18 17 15 15 16 16 16 16 16 15
16 17 18 17 16 14 13 13 14 16 17 17 16 13 11 11 12 12 12 11 11 10 11 11 11 10 10 11 11 11 11 12 12 11 8 7 5 5 7 10 10 12 12 12 12 11 9 10 11 11 11 9 8 8 10 10 9 8 9 9 9 9 11 12 11 9 7 5 6 8 12 13 15 16 17 17 16 14 14 15 15 15 15 16 16
16 17 17 18 18 17 15 15 13 13 14 15 15 14 12 11 11 11 11 11 12 13 14 14 13 11 11 12 12 13 14 14 12 9 7 6 5 7 10 9 8 9 9 10 10 9 9 11 13 12 11 10 9 9 10 12 12 11 11 11 10 10 12 14 14 13 11 9 9 10 12 13 12 13 15 16 16 13 13 14 14 14 14 14 15
17 17 18 18 18 18 17 17 15 13 12 12 13 15 14 13 12 12 12 12 12 14 15 14 13 12 12 13 12 11 12 11 10 8 8 8 10 12 12 10 10 11 10 10 10 10 11 13 13 12 11 11 11 12 12 12 12 12 12 12 12 12 13 15 16 15 14 13 14 14 15 14 12 11 13 14 14 13 12 13 13 13 13 13 13
19 18 19 20 20 19 19 19 18 17 15 13 13 15 16 15 15 14 15 15 14 14 15 15 14 13 12 12 11 10 10 10 10 10 11 13 14 15 13 11 12 12 12 12 13 12 13 14 13 12 12 12 13 13 12 11 11 11 10 10 11 12 13 15 16 16 15 15 15 15 16 15 12 11 11 12 12 11 11 13 13 13 12 11 11
21 20 20 21 22 22 21 20 19 18 18 17 15 15 16 15 15 16 16 18 18 17 17 17 16 15 14 14 13 13 12 12 12 12 13 14 15 14 13 13 14 14 13 13 13 13 14 14 13 13 12 13 13 12 11 11 10 10 9 9 10 11 13 14 16 16 16 15 15 16 16 13 10 10 10 11 10 9 10 12 13 13 12 10 10
21 22 20 20 22 23 23 22 21 19 18 18 18 18 17 17 17 17 17 17 17 16 16 17 17 18 17 17 17 15 15 14 15 15 15 14 14 14 15 15 15 14 13 13 12 13 14 14 14 14 13 13 12 11 11 12 11 10 9 10 11 11 13 14 15 15 15 15 15 16 15 11 9 10 10 10 9 8 9 12 13 13 11 10 9
20 21 21 21 21 22 23 22 20 19 18 17 18 19 20 20 20 20 19 17 17 17 17 19 20 19 19 17 15 14 15 14 15 16 15 14 14 15 16 16 15 14 14 13 13 13 13 14 15 15 15 14 13 12 11 11 10 10 10 11 12 12 13 13 13 12 13 13 14 14 13 10 9 10 9 8 8 8 9 11 13 13 11 9 9
21 20 20 21 20 20 22 22 21 21 20 19 18 18 18 20 21 21 20 19 19 18 20 22 21 19 17 14 12 13 14 14 14 15 15 15 15 15 15 15 15 15 14 14 14 14 14 15 15 15 15 14 14 13 13 12 11 10 11 12 13 13 13 13 11 11 11 13 14 12 10 10 10 9 8 7 7 7 9 11 11 11 10 9 9
23 21 19 20 21 21 22 22 22 22 21 21 21 21 21 20 21 22 21 21 22 22 23 24 23 20 17 15 13 13 15 16 15 15 15 15 14 14 15 15 15 15 15 16 17 17 18 18 16 15 15 15 15 14 14 13 13 13 12 13 14 14 13 12 11 11 12 13 14 12 9 9 10 9 9 8 7 7 9 9 10 10 9 9 9
20 20 19 20 22 21 20 20 21 21 21 21 20 21 22 22 22 23 23 23 23 23 24 24 23 20 18 17 16 15 16 17 16 16 15 15 15 15 15 15 15 15 16 17 19 19 20 19 17 15 16 16 15 14 15 15 15 15 14 13 14 15 15 14 12 12 12 12 13 12 10 9 10 10 9 8 7 7 8 8 8 9 8 7 8
17 20 21 20 20 18 17 17 17 17 17 18 18 19 20 20 21 22 24 23 22 22 23 23 22 20 19 19 19 18 17 16 15 16 17 16 16 15 15 15 15 15 15 16 17 17 18 18 18 17 19 19 18 17 17 17 17 17 16 15 14 15 15 16 14 13 12 12 12 12 11 10 10 11 9 7 6 6 6 6 7 8 7 6 8
18 19 19 18 17 15 15 17 18 16 14 15 17 18 18 18 19 21 22 23 22 21 21 21 21 20 19 19 18 19 19 17 16 16 16 16 16 16 16 16 16 16 16 16 16 16 17 18 19 20 21 21 20 19 19 19 19 19 18 17 16 15 16 17 16 14 13 12 12 12 12 11 11 11 10 7 5 5 5 5 6 7 7 7 9
18 18 18 17 17 17 17 18 19 19 20 20 20 19 20 19 19 20 21 22 22 21 21 21 20 19 19 17 17 18 20 20 19 18 17 16 17 17 18 18 18 18 18 18 18 18 18 19 20 21 21 21 21 20 19 20 21 20 20 19 18 16 16 16 16 15 14 13 13 14 13 12 12 12 10 6 4 4 5 5 6 7 6 8 10
17 19 20 20 20 20 19 17 16 18 21 23 22 22 22 21 20 19 20 21 22 22 22 21 20 20 21 20 19 20 20 18 17 18 18 18 17 17 18 18 19 19 20 21 20 20 19 20 21 22 21 21 22 21 21 21 23 22 23 23 22 20 19 18 17 16 15 15 14 15 14 13 12 13 11 7 5 5 5 6 7 7 7 7 10
16 18 18 19 20 19 17 15 16 19 21 22 22 22 22 21 20 19 19 20 21 22 23 21 20 20 21 22 22 22 21 19 18 18 18 17 18 18 19 19 20 21 21 22 22 22 22 22 22 22 22 21 22 23 22 23 24 23 23 24 23 22 21 21 20 18 16 16 16 16 16 13 12 13 11 8 7 7 6 6 7 8 7 7 10
15 16 16 17 17 16 15 14 17 20 20 20 21 21 21 21 21 20 20 20 19 19 20 20 19 20 20 21 21 21 21 22 22 21 19 19 21 21 21 21 22 23 23 23 23 23 23 23 23 23 23 23 24 25 24 24 25 24 23 23 24 23 23 23 23 21 18 18 18 18 17 13 12 14 12 9 9 9 7 7 8 8 7 7 8
12 13 14 15 16 16 15 14 16 19 20 21 22 23 23 22 21 21 21 21 20 19 19 19 19 18 18 18 18 19 21 22 22 22 21 22 23 24 24 24 24 25 25 24 24 24 23 23 23 24 24 25 26 26 25 25 25 25 25 25 24 24 24 24 24 23 21 20 20 20 18 14 13 14 13 10 9 9 8 8 8 7 7 7 7
7 8 9 11 12 14 15 16 17 19 21 22 23 24 25 24 22 22 22 22 21 20 19 18 18 17 17 18 17 17 19 20 21 21 22 22 23 24 25 25 25 26 26 25 25 25 25 25 25 25 25 25 25 26 25 25 24 24 26 26 25 25 25 26 26 25 23 23 22 21 19 16 15 16 15 12 10 9 8 7 7 8 7 6 6
4 4 5 6 6 6 5 11 16 16 17 20 23 25 26 25 22 21 22 22 21 20 20 18 17 16 17 17 17 16 17 18 19 20 21 21 22 23 24 24 25 26 27 27 27 27 28 29 29 28 28 27 27 27 26 25 23 23 25 26 26 26 28 28 28 27 27 26 24 23 22 20 18 18 18 16 13 10 8 7 6 6 6 5 6
Wind_Direction
152 151 146 142 142 144 136 119 109 107 107 108 116 104 89 78 55 34 8 2 9 13 74 110 163 199 71 72 130 168 207 238 290 301 3 22 46 117 128 133 139 149 149 144 135 132 128 124 121 113 105 93 85 76 63 44 26 16 9 5 6 7 5 5 3 357 348 338 328 321 319 322 325 330 330 328 324 320 317 317 318 316 315 315 311
154 151 144 139 138 134 124 112 104 104 104 96 102 96 87 69 28 345 313 175 173 189 184 188 191 199 209 53 59 127 195 234 275 308 26 18 37 105 126 134 145 155 149 140 133 129 125 122 122 112 103 89 74 58 42 29 17 7 359 357 356 357 357 0 4 360 353 343 331 321 317 319 322 326 325 321 319 318 318 319 320 319 316 314 312
156 152 145 137 130 125 120 120 126 141 147 153 153 105 94 78 23 252 181 152 160 162 173 209 207 198 212 231 19 43 181 239 302 73 33 9 38 117 128 140 151 154 144 136 130 123 119 111 112 104 89 71 46 23 15 11 6 359 353 352 351 349 349 353 359 358 354 347 336 331 329 330 329 329 326 320 319 317 315 315 316 316 312 310 308
156 151 145 139 133 133 142 159 178 171 154 174 204 181 149 110 164 191 160 151 159 150 161 194 189 181 205 224 319 335 27 253 348 58 22 357 31 126 124 148 148 146 136 125 122 110 105 88 81 68 25 7 3 353 356 359 356 352 348 348 348 346 346 349 353 354 352 347 339 341 344 344 338 330 326 323 319 315 310 309 309 309 306 305 302
157 153 146 140 134 141 169 182 178 163 161 188 197 161 158 171 182 180 159 151 149 142 144 160 158 158 191 223 257 278 269 188 275 13 9 351 184 137 128 153 140 142 136 126 125 111 104 71 40 17 346 338 346 345 348 351 346 343 340 341 344 344 344 345 347 349 348 344 340 344 351 353 346 330 322 322 319 316 314 313 312 310 305 302 297
156 149 145 139 138 164 182 171 161 167 183 193 182 167 161 156 164 168 157 157 151 147 145 150 157 151 174 204 231 243 238 206 223 319 339 348 135 152 140 153 154 150 139 129 127 112 106 46 17 2 346 337 339 338 341 341 339 339 338 341 343 342 343 341 341 343 342 341 340 342 350 355 349 333 318 318 320 324 325 324 322 318 311 305 297
149 144 149 147 154 183 175 164 176 181 187 182 167 162 149 141 152 151 149 161 153 151 157 153 153 144 166 181 181 202 222 214 214 255 286 326 330 238 169 159 155 144 138 123 115 85 2 355 342 337 329 327 326 324 329 334 338 342 342 343 344 341 342 340 338 336 336 341 343 344 351 355 353 341 324 321 327 331 331 329 326 321 316 309 301
150 152 161 161 172 188 175 177 190 179 172 170 160 151 139 133 143 149 147 159 153 144 142 152 165 145 158 183 193 177 167 183 206 250 263 311 335 319 253 220 166 87 83 40 12 325 328 329 321 318 312 310 313 315 325 336 344 349 348 347 345 343 343 342 340 337 338 345 350 351 354 356 355 351 342 336 338 338 336 333 328 323 317 311 304
159 165 164 164 182 188 183 182 176 171 168 161 155 152 146 131 144 162 155 163 171 164 155 172 184 161 155 178 176 169 155 160 220 240 234 304 334 344 52 323 339 25 323 344 337 314 321 344 340 330 321 317 316 319 333 344 347 350 349 347 344 344 347 348 350 349 349 350 354 357 356 355 357 357 353 347 345 343 339 337 332 326 320 313 306
168 170 161 168 185 183 185 178 170 178 171 158 156 152 150 151 160 161 155 170 187 198 187 223 205 170 174 185 177 195 190 190 243 207 214 313 315 310 39 322 329 16 326 339 339 320 318 359 353 338 331 323 319 325 338 345 344 344 344 341 342 345 346 348 353 355 352 351 356 358 354 353 356 357 355 350 347 344 339 337 334 329 322 316 310
176 170 164 176 185 182 187 177 175 182 170 166 164 151 157 171 170 160 152 156 163 178 141 94 177 201 212 201 209 232 213 217 213 199 255 302 308 287 272 289 286 296 304 326 346 344 339 354 346 333 329 324 322 329 336 342 343 341 341 338 341 344 341 342 351 354 352 353 357 355 351 351 352 354 354 351 348 343 338 336 334 330 324 317 313
180 170 172 182 183 186 191 180 178 178 169 172 169 162 169 167 165 162 150 150 156 168 142 110 201 230 199 204 249 229 200 213 209 213 230 242 311 301 275 272 276 288 293 303 329 332 335 349 341 328 327 329 328 330 335 340 339 339 337 334 337 342 338 340 348 352 351 355 357 352 348 347 349 353 354 352 349 344 339 339 337 334 329 322 315
181 175 178 179 180 188 188 180 182 179 173 172 170 176 179 164 160 158 155 182 165 154 157 281 246 189 176 205 257 197 198 212 184 200 225 230 263 282 280 272 268 280 279 284 315 314 318 334 330 322 321 324 324 322 328 334 334 335 332 331 338 341 338 340 347 351 352 356 356 351 347 344 347 352 352 350 347 342 338 339 340 339 337 332 321
185 181 179 180 183 189 183 179 186 183 177 178 180 178 172 163 164 164 174 199 159 145 268 297 243 243 224 213 206 206 240 257 194 205 223 220 232 248 271 268 266 297 275 260 281 277 283 307 312 312 307 310 316 316 320 325 328 332 332 335 342 339 337 341 346 351 353 357 357 353 350 347 348 348 345 344 341 339 337 339 343 344 344 343 333
191 190 185 185 186 184 179 181 189 189 183 183 185 173 163 166 165 167 191 194 175 198 268 73 119 291 262 220 215 217 227 241 244 236 217 217 235 240 255 255 264 307 276 238 255 246 249 288 306 306 297 302 313 312 313 319 325 333 337 344 346 338 338 341 345 350 355 0 360 357 355 350 346 340 338 338 338 337 337 340 345 348 348 348 343
193 196 193 189 186 182 181 184 187 191 190 187 187 175 167 173 172 179 199 198 193 201 227 141 185 261 243 236 255 209 210 220 127 122 189 214 238 239 270 269 263 297 258 232 255 249 248 277 292 294 293 308 315 306 307 319 326 332 340 351 352 345 344 343 343 348 355 360 358 355 352 346 340 336 336 337 337 337 339 342 345 348 349 349 346
190 194 194 192 188 181 181 186 182 181 185 186 183 170 163 171 181 207 206 197 196 193 186 171 155 272 287 359 40 90 115 126 124 113 152 195 219 226 313 296 286 317 269 242 261 274 274 278 277 278 287 303 307 301 309 324 330 333 339 348 348 346 347 344 341 341 347 350 348 345 342 339 336 336 337 337 337 337 339 343 346 347 348 348 347
187 191 189 187 186 184 184 183 179 177 175 173 169 160 164 187 204 215 210 191 177 171 176 184 218 348 359 37 61 55 32 14 283 274 151 220 250 273 327 319 305 314 302 279 284 299 301 293 287 288 291 296 299 301 311 324 329 328 334 339 336 338 343 343 336 334 340 341 340 338 336 336 336 336 337 336 336 337 341 344 346 346 345 345 348
187 191 185 186 185 187 187 177 178 181 173 168 167 164 173 193 206 209 207 190 172 169 173 191 223 231 37 97 86 46 12 2 355 334 323 310 274 251 286 308 304 310 313 312 313 311 308 307 306 301 295 296 300 304 308 317 323 321 322 328 329 332 338 339 335 336 342 340 338 338 336 335 336 337 337 337 337 339 342 345 346 345 343 343 347
188 190 185 190 188 188 188 178 180 184 178 172 169 174 184 195 206 206 205 203 196 192 170 176 203 169 127 162 133 60 18 359 1 351 332 334 335 321 311 307 315 324 323 321 320 318 315 312 312 308 299 295 298 304 306 308 315 315 313 318 324 331 336 338 337 341 343 341 340 338 338 338 340 341 340 339 340 341 343 345 345 345 342 341 346
188 190 189 193 189 190 190 184 186 184 181 175 166 179 197 202 207 202 205 220 217 204 185 192 194 158 139 152 144 83 7 335 339 347 332 328 330 334 326 308 316 332 330 326 321 322 327 323 321 320 311 303 301 303 305 309 315 312 307 312 325 333 336 336 338 342 342 340 340 341 342 346 347 346 343 341 342 343 345 345 345 344 343 341 345
189 193 198 198 194 195 191 186 189 183 175 168 171 208 215 208 216 220 216 220 221 213 209 216 205 180 189 150 99 28 345 315 303 319 324 324 321 324 323 303 305 321 328 330 326 324 327 327 328 326 320 318 316 311 314 324 328 316 303 317 338 338 336 339 343 344 342 342 344 347 350 353 352 349 346 344 344 345 345 346 346 346 345 342 343
195 196 200 200 198 199 194 190 190 184 178 176 187 214 221 211 215 224 219 215 218 218 220 226 215 203 211 214 291 319 318 308 302 309 315 312 308 312 313 303 307 319 322 316 318 325 321 319 323 322 321 329 330 325 324 326 329 319 305 324 342 343 342 351 356 353 348 350 353 353 352 353 355 354 351 347 345 346 346 347 349 349 348 345 339
202 200 200 200 203 200 195 194 194 192 191 190 194 205 211 203 199 208 214 214 220 224 227 230 220 210 208 220 250 280 296 309 309 312 314 309 312 317 316 315 319 327 328 315 319 330 326 319 322 321 326 339 339 336 329 327 332 325 312 329 344 350 355 356 359 357 352 356 360 356 353 353 356 355 353 350 347 347 347 347 350 351 350 348 341
203 204 200 202 209 205 201 200 198 198 199 198 198 202 202 195 198 206 216 224 227 226 227 226 223 222 219 221 241 261 278 300 305 310 312 307 319 326 322 325 328 329 332 331 327 325 322 322 321 320 329 338 342 340 332 330 336 334 323 333 342 351 355 351 353 352 351 358 1 358 354 353 355 354 354 352 349 349 348 347 349 350 352 352 345
206 206 200 205 211 207 208 210 204 202 204 204 206 210 206 202 208 210 215 229 232 228 230 226 223 223 219 238 265 265 265 270 274 299 310 305 316 328 327 326 324 321 323 326 325 320 322 327 324 329 339 339 337 336 336 336 337 340 334 336 345 355 354 347 345 344 347 358 1 356 352 350 351 353 353 352 351 352 350 347 347 348 352 354 349
211 207 204 214 219 208 206 214 214 210 211 212 212 217 214 214 221 222 224 237 241 239 238 235 232 224 217 236 252 258 263 259 251 275 300 303 313 322 322 324 319 315 313 315 316 314 323 337 335 336 341 344 342 335 337 339 338 339 334 335 350 359 350 338 334 335 339 350 354 352 348 347 349 350 352 352 352 354 353 350 348 348 351 355 353
214 207 203 211 222 222 215 215 219 219 219 219 218 219 218 217 223 229 233 239 246 247 241 240 242 237 231 229 236 260 276 269 256 258 270 291 313 316 316 322 318 315 314 314 314 314 319 330 334 339 341 342 341 335 335 340 338 333 325 327 345 352 345 336 331 329 326 330 340 345 345 345 346 348 351 352 353 355 355 353 353 352 352 355 357
218 213 210 211 216 226 233 231 229 227 225 224 224 225 224 221 223 229 234 234 240 245 244 244 242 240 238 223 221 254 274 272 270 261 253 274 310 312 311 312 308 309 314 314 314 315 319 321 324 334 335 331 331 329 328 329 326 323 322 326 336 347 346 339 335 330 322 319 322 333 341 342 343 346 349 352 353 355 357 357 358 359 357 358 1
225 232 231 221 213 219 229 238 244 241 230 225 227 229 232 234 229 229 232 231 235 243 248 251 250 250 252 241 231 235 243 250 259 260 248 245 277 290 291 296 298 301 306 309 311 315 325 332 328 319 314 315 317 317 316 315 313 310 311 315 322 335 336 332 330 324 318 315 312 320 334 338 341 344 347 350 351 355 359 0 2 4 3 3 4
220 228 238 239 227 222 224 228 237 245 244 239 237 233 233 238 238 236 237 237 238 243 249 256 257 256 258 260 258 252 248 249 253 259 257 249 255 264 271 283 290 294 297 300 304 312 325 330 326 319 310 303 299 298 298 300 301 291 280 288 301 315 319 323 327 322 313 308 303 312 330 336 339 343 346 349 351 355 1 4 6 6 5 5 6
218 216 227 241 242 237 232 227 229 236 242 247 249 248 243 239 239 239 241 244 244 248 256 261 262 260 256 254 260 264 263 258 259 267 274 267 257 254 270 285 284 285 290 293 298 306 314 314 316 323 317 302 294 290 286 293 300 291 279 282 289 298 307 317 323 319 312 303 298 313 328 334 338 342 346 350 351 355 1 6 10 8 4 4 5
230 220 218 228 237 243 245 241 236 234 236 241 247 256 258 251 243 239 240 244 247 254 264 266 264 263 262 258 256 255 256 262 269 275 286 290 276 266 284 292 283 279 281 285 295 303 301 301 310 314 310 307 306 297 293 301 309 303 290 288 288 289 299 310 309 305 309 310 308 315 321 329 338 342 346 348 348 353 1 6 11 11 5 2 3
241 236 226 221 225 235 246 251 253 246 238 237 243 252 262 264 259 251 249 248 245 248 258 266 270 270 268 265 261 256 255 262 271 280 295 309 298 277 276 280 278 277 276 280 290 298 296 299 305 307 308 313 312 305 302 303 305 300 292 289 283 276 285 295 298 300 305 307 304 303 309 322 334 340 345 346 346 350 359 6 12 12 5 2 1
243 245 244 237 230 232 237 243 251 256 253 245 243 249 258 267 269 264 265 267 255 246 253 264 272 271 266 263 264 264 262 264 270 275 279 280 276 270 269 271 273 274 276 277 279 284 289 294 300 307 312 313 310 310 308 302 300 297 292 287 279 275 283 290 295 300 303 303 302 301 307 314 321 334 342 343 345 349 355 4 10 10 5 1 0
232 233 239 245 246 244 240 235 238 245 252 253 250 251 255 260 266 265 264 270 269 258 255 262 270 274 270 266 269 275 273 268 264 260 258 259 262 265 266 268 270 268 268 271 273 277 281 285 292 301 309 312 314 315 312 304 300 297 295 290 282 281 288 292 295 297 296 299 303 306 309 309 310 326 338 340 344 349 352 0 6 5 2 359 358
229 227 228 235 242 247 246 242 239 238 238 242 246 251 253 254 260 262 260 264 268 264 255 255 261 269 271 271 274 276 273 269 266 262 258 257 258 263 264 265 266 266 267 268 270 274 279 284 288 292 301 311 315 318 313 306 300 296 295 293 289 292 297 300 301 297 292 294 298 303 307 305 308 323 332 336 343 348 348 354 0 1 358 356 356
234 231 231 235 239 241 243 244 246 244 238 236 237 240 245 248 255 260 262 265 270 272 270 263 257 254 256 261 268 272 273 273 272 270 267 265 265 268 270 270 268 269 270 271 273 277 283 287 287 290 298 305 306 310 310 305 301 299 298 296 297 301 306 308 305 298 295 296 295 298 300 298 307 321 325 328 337 344 342 346 354 357 355 353 355
242 235 234 238 240 240 242 243 242 242 240 240 240 240 241 244 248 253 257 263 270 275 275 269 262 258 257 259 263 267 268 266 267 269 268 268 270 271 273 274 272 272 273 273 275 278 281 283 284 289 297 301 301 302 303 303 303 306 308 306 305 307 311 312 304 292 292 298 299 297 294 293 306 317 318 322 332 338 340 345 352 355 355 355 356
248 247 245 246 243 239 242 245 243 238 236 237 240 241 242 242 244 248 250 252 256 261 263 265 268 272 272 269 264 261 262 263 268 275 273 270 272 276 279 277 275 276 276 274 274 275 277 279 283 290 297 298 298 297 297 297 298 303 308 306 305 308 312 316 309 291 287 294 297 293 287 292 307 314 312 316 325 333 343 351 353 354 359 1 357
243 246 252 256 252 242 239 244 250 247 239 238 239 240 240 241 244 247 248 247 249 252 257 263 270 274 275 273 264 256 263 272 278 283 281 278 279 281 282 280 280 281 280 279 279 280 281 280 283 289 293 292 295 297 295 293 294 298 302 302 302 305 309 315 315 305 299 296 292 286 284 296 307 308 309 313 318 327 343 353 352 350 359 9 5
243 241 247 255 256 251 248 250 256 255 246 242 243 243 245 250 253 253 252 250 250 252 256 261 267 271 273 272 265 259 264 270 273 278 282 284 286 287 285 282 282 283 284 283 282 283 284 283 284 288 288 288 292 294 292 291 292 294 298 300 300 301 304 308 310 307 302 295 290 288 290 299 304 301 304 313 316 323 341 350 344 343 354 14 16
244 243 245 248 250 253 254 251 252 254 248 244 246 247 251 257 261 259 255 250 250 253 257 259 261 265 268 270 267 263 261 263 270 280 286 289 291 290 288 286 284 285 289 290 287 286 285 286 288 290 289 290 292 290 289 288 288 289 291 292 294 298 302 305 306 306 303 295 289 288 289 292 294 291 294 309 318 321 336 339 331 337 353 8 8
242 242 242 243 244 247 249 247 245 246 246 249 253 255 257 262 266 264 257 252 251 253 257 259 260 262 265 268 268 264 264 268 273 275 278 283 287 287 286 287 286 285 287 290 290 288 286 286 287 288 288 291 293 293 291 289 288 286 284 283 287 292 296 298 300 302 298 290 284 282 282 283 283 281 284 299 316 317 322 323 319 330 345 351 349
242 243 244 248 252 252 253 253 247 241 241 248 255 257 259 262 264 262 258 254 252 253 255 257 261 262 262 264 267 267 268 272 273 270 269 273 278 283 284 286 286 285 283 284 284 285 284 283 283 285 288 290 292 296 299 297 293 287 282 280 281 281 282 284 288 290 286 280 277 276 274 272 271 272 275 286 300 298 297 306 313 319 330 336 338
251 251 253 256 258 258 257 253 247 244 246 249 253 256 259 259 258 258 258 257 255 255 255 256 259 261 262 264 266 265 266 268 269 268 268 269 272 277 280 282 283 283 281 280 281 282 282 281 283 286 289 289 289 294 298 295 292 288 282 280 279 277 277 276 275 275 273 271 272 270 266 265 265 265 268 272 273 267 273 294 307 308 314 327 332
254 255 257 258 256 255 254 251 250 253 255 256 256 257 258 257 256 257 259 261 260 258 257 257 258 258 258 259 261 261 262 263 262 262 264 268 273 275 276 279 281 281 281 281 281 281 281 282 283 285 287 287 287 289 290 289 288 286 280 277 276 276 276 274 269 266 263 263 266 265 266 265 256 252 257 264 258 250 256 280 296 299 302 317 328
255 254 256 257 255 253 253 255 256 255 253 255 257 256 254 255 255 254 255 258 259 257 254 254 253 252 254 256 257 259 260 260 261 263 266 271 275 276 275 276 278 280 282 283 282 282 282 282 281 281 281 283 284 286 286 285 284 281 275 271 272 272 272 271 267 261 255 256 260 263 264 257 242 241 248 252 246 241 249 273 285 287 291 307 323
265 264 262 263 264 264 263 260 259 256 254 254 254 251 249 251 253 252 250 247 246 245 246 249 251 252 255 258 258 260 262 263 266 268 269 270 273 275 275 275 277 279 282 283 283 282 282 280 278 277 278 279 281 283 282 282 282 280 273 268 267 269 270 269 266 259 253 254 259 261 257 245 230 234 243 241 231 233 249 270 275 271 279 301 320
282 283 283 280 277 275 269 259 257 260 261 260 258 256 252 248 246 245 243 241 239 240 243 246 250 252 254 256 257 259 263 267 269 270 270 271 273 275 276 277 278 279 281 282 281 281 281 280 279 279 278 278 278 279 280 281 280 277 273 270 268 269 268 268 267 261 253 251 254 254 249 237 222 225 234 232 224 231 245 254 252 250 262 293 316
355 354 2 4 4 360 308 256 250 257 261 256 253 251 248 245 240 236 234 234 233 234 239 242 244 246 249 252 254 257 261 264 268 269 270 272 275 277 278 279 280 281 281 282 283 283 283 283 283 283 281 279 278 277 279 280 278 275 274 273 272 270 268 267 266 262 255 251 249 246 241 233 222 219 221 222 222 223 218 207 211 227 248 282 306